Kensworth, United Kingdom
Current Conditions -  °F | °C
As of 4:20 AM on Monday 22 Dec 2014 (Local Time) from EGGW Reporting Station
Overcast Overcast  
Wind Chill: 54°   Ceiling: 1000
Heat Index: 54°   Visibility: 6mi
Dew Point: 50°   Wind: 21mph
Humidity: 88%   Direction: 230°SW
Pressure: 30"   Gusts: 32mph
Location:  51.85°N, 0.5°W
Report Text: EGGW 220420Z AUTO 23018G28KT 9999 OVC010 12/10 Q1016
Loading
Personal Weather Stations






























Interactive Weather Map New forecast layout! Learn more

10-Day Weather Forecast

Advertisements
Track Severe Weather on mobile